Other Surface Observations
Issued by NWS

Home | Current Version | Previous Version | Text Only | Print | Product List | Glossary On
Versions: 1 2 3 4 5 6 7 8 9 10 11 12 13 14 15 16 17 18 19 20 21 22 23 24 25 26 27 28 29 30 31 32 33 34 35 36 37 38 39 40 41 42 43 44 45 46 47 48 49 50
000
SXUS52 KTAE 250105
OSOTAE
OSOTAE
North Florida/South Alabama/Southwest Georgia Weather Roundup
National Weather Service Tallahassee Florida
800 PM EST FRI NOV 24 2017

Note: "fair" indicates few or no clouds below 12,000 feet with no
significant weather and/or obstructions to visibility.

!FLZ017-115-028-034-025-250200
...North Florida...

CITY           SKY/WX    TMP DP  RH WIND       PRES   REMARKS
TALLAHASSEE    CLEAR     52  49  89 NW5       29.98R
APALACHICOLA   CLEAR     55  55 100 CALM      29.98R
PERRY          CLEAR     53  51  92 CALM      29.99R
CROSS CITY     CLEAR     55  54  99 CALM      30.02R
JACKSONVILLE   PTCLDY    56  52  86 CALM      29.96R
$$

!FLZ112-006-005-002-011-250200
...Florida Panhandle...

CITY           SKY/WX    TMP DP  RH WIND       PRES   REMARKS
MARIANNA       CLEAR     53  46  77 CALM      29.97R
BONIFAY        NOT AVBL
PANAMA CITY NW FAIR      53  50  89 CALM      29.97R
TYNDALL AFB    CLEAR     53  51  92 CALM      29.98R
TYND DRONE APT FAIR      53  53  98 CALM      29.98R
DE FUNIAK SPR  FAIR      56  51  81 CALM      29.97S
EGLIN AFB      PTCLDY    60  51  74 CALM      29.96S
DESTIN         PTCLDY    60  51  72 CALM      29.97R
HURLBURT       NOT AVBL
CRESTVIEW      PTCLDY    50  48  93 CALM      29.98S
PENSACOLA      CLEAR     58  53  84 CALM      29.96S
$$

!ALZ063-066-250200
...South Alabama...

CITY           SKY/WX    TMP DP  RH WIND       PRES   REMARKS
DOTHAN         CLEAR     49  45  86 CALM      30.00S
OZARK CAIRNS   CLEAR     54  47  77 NE3       29.96S
FT RUCKER HELI CLEAR     50  49  98 CALM      29.96S
RUCKER HELI 3    N/A     54  48  80 CALM      29.96S
RUCKER HELI 2  FAIR      51  50  93 CALM      29.95S
FLORALA APT    CLEAR     51  47  86 CALM      29.99R
ANDALUSIA      CLEAR     54  49  83 CALM      29.96R
TROY           CLEAR     50  48  93 CALM      29.97S
EUFALA         FAIR      47  45  93 CALM      29.96S
MOBILE         PTCLDY    49  44  83 CALM      29.97S
$$

!GAZ120>161-250200
...Southwest and South Central Georgia...

CITY           SKY/WX    TMP DP  RH WIND       PRES   REMARKS
THOMASVILLE    FAIR      50  50 100 CALM      29.99R
BAINBRIDGE     CLEAR     54  50  87 CALM      29.98S
MOODY AFB      CLEAR     49  46  87 CALM      29.97R
VALDOSTA       CLEAR     46  43  89 CALM      29.98R
MOULTRIE       CLEAR     50  45  81 CALM      30.00R
BLAKELY        CLEAR     50  46  87 CALM      29.98S
ALBANY         CLEAR     51  43  74 CALM      29.97R
TIFTON         FAIR      47  44  87 CALM      29.98S
FITZGERALD     FAIR      47  45  91 CALM      30.01R
CORDELE        FAIR      50  44  79 CALM      30.00R
AMERICUS       FAIR      46  41  81 CALM      30.00S
HOMERVILLE     FAIR      46  46 100 CALM      29.98S
$$

!GMZ750-755-770-775-250200
...Coastal and Buoy Obs...

STATION/POSITION TIME  TEMP    WIND        PRES    VSBY  WAVE
                       AIR SEA DIR/SP/G                  HT/PER
                 (UTC) (F)     (DEG/KT/KT) (MB)    (MI)  (FT/S)
KEATON BEACH     0000   61      10/  3/  4 1014.6R
CEDAR KEY        0000   63     310/  5/  7 1014.8R
C TOWER          0000   65     300/  2/  2 1015.5R
APALACHICOLA BUO NOT AVBL
PANAMA CITY BUOY 2350   68 76  110/  4/  6 1014.5          2/ 5
MOBILE BUOY      0050   65 77  310/  4/  8 1015.2S         2/ 6
ORANGE BCH AL BU NOT AVBL
$$




USA.gov is the U.S. government's official web portal to all federal, state and local government web resources and services.